Wind_Speed
19 21 21 20 20 21 19 20 21 21 22 23 24 25 25 25 25 25 27 26 25 26 26 26 26 27 27 25 26 26 26 26 24 26 27 28 26 26 28 29 29 29 27 13
22 22 23 23 24 23 23 23 23 23 25 26 26 27 28 29 29 30 31 31 31 31 32 32 32 31 30 30 29 30 30 32 29 28 30 32 33 31 32 33 34 33 33 20
25 24 27 28 27 27 28 27 27 26 27 28 30 30 31 32 33 34 35 36 36 37 38 39 40 39 38 37 37 37 38 38 38 37 36 34 35 37 38 39 40 35 37 31
29 28 27 28 30 31 30 30 30 29 29 30 30 32 34 35 35 36 37 38 40 41 41 41 41 43 43 43 43 43 44 44 45 44 44 44 44 42 42 43 43 46 37 38
29 29 31 31 30 29 32 32 32 31 31 32 33 34 35 37 39 39 39 39 39 40 40 40 40 40 42 43 44 45 46 48 48 48 49 51 52 51 51 50 50 51 47 46
30 30 31 31 33 34 33 33 35 36 35 34 34 34 35 36 38 38 39 38 39 39 39 38 39 39 41 43 44 46 48 50 51 51 52 54 57 55 54 56 56 56 56 52
32 33 33 33 34 36 36 36 36 35 36 37 36 37 37 37 37 39 40 40 39 40 40 42 42 43 44 45 45 47 50 50 53 55 55 59 57 57 58 59 59 59 59 58
31 33 34 35 36 35 37 37 37 37 37 37 38 38 38 38 38 38 40 41 41 41 41 42 43 43 44 43 43 44 45 47 50 52 54 55 54 55 57 58 61 61 60 60
31 32 32 33 33 33 33 34 34 35 35 35 36 36 37 37 36 37 38 39 40 40 40 40 39 39 39 40 41 42 45 48 50 54 54 56 55 54 54 54 59 58 59 60
31 32 30 29 28 28 30 31 31 32 32 33 34 34 34 34 35 36 36 37 36 36 37 38 39 41 42 43 44 45 46 47 49 50 52 54 52 51 52 53 54 55 55 56
27 26 24 24 22 22 23 23 25 27 29 31 32 32 32 33 33 34 34 34 35 37 38 39 40 42 44 45 46 45 45 46 45 46 48 48 43 44 47 50 51 54 55 56
21 21 20 19 19 20 21 19 19 20 23 25 27 28 29 31 32 33 34 36 37 38 39 40 42 42 43 43 43 45 46 47 46 48 45 45 45 47 48 48 47 49 50 53
13 16 17 17 18 19 19 21 19 21 24 26 27 28 30 32 34 35 35 36 38 40 40 40 41 40 41 41 41 42 44 46 47 45 45 46 47 47 48 50 49 48 49 49
16 15 16 17 17 17 18 20 23 24 26 28 31 32 34 34 35 37 38 38 39 41 40 39 38 38 39 39 40 41 41 42 42 45 46 46 46 47 48 47 46 47 48 47
18 16 17 18 19 21 21 22 23 24 26 30 32 32 33 35 36 37 38 39 39 38 37 37 36 36 38 36 35 35 37 40 43 42 43 43 41 40 43 43 41 43 46 47
21 21 21 20 20 21 23 25 25 25 27 28 31 31 31 34 35 35 35 34 34 34 32 32 31 33 34 33 31 23 29 32 33 33 34 34 35 37 38 40 41 41 43 45
23 22 22 21 21 22 23 25 25 26 28 27 28 28 27 26 26 26 26 26 27 28 29 29 30 31 32 32 30 29 28 28 30 31 31 31 33 34 36 39 40 43 44 45
22 21 22 21 21 24 24 25 24 23 24 22 21 20 19 20 18 18 19 21 22 24 26 26 27 28 30 29 30 30 29 30 30 31 33 32 30 33 34 35 35 36 40 44
22 22 22 23 22 21 19 20 19 19 16 14 15 16 17 18 21 22 22 23 25 25 25 25 25 25 26 26 26 25 26 27 29 31 33 34 34 31 32 35 33 32 31 33
20 22 23 19 17 17 16 15 13 11 12 14 16 17 19 22 23 22 19 18 22 25 26 28 29 28 27 26 24 24 23 25 26 28 29 32 34 34 31 32 36 34 29 29
25 24 16 14 14 13 11 9 9 11 13 16 18 19 20 20 19 18 23 30 31 28 26 23 25 24 27 27 26 26 25 24 24 27 24 27 31 31 30 27 30 36 34 31
15 10 11 12 11 8 8 9 10 12 15 18 19 19 21 20 21 27 31 28 29 27 27 23 19 20 20 22 24 26 26 28 27 23 27 29 29 29 25 23 21 27 32 32
9 10 9 8 7 8 8 9 12 15 16 18 18 18 20 22 23 25 26 29 27 29 25 18 15 13 16 18 20 23 22 23 19 22 24 24 25 23 25 25 26 28 27 31
8 7 7 7 8 8 10 12 14 16 17 17 14 21 22 23 25 25 27 29 27 24 19 14 17 20 18 14 15 14 16 14 16 19 22 20 18 18 21 24 26 25 22 23
8 8 7 7 8 9 11 13 16 15 17 14 18 21 21 19 21 22 25 26 25 22 21 16 16 15 15 15 18 15 10 15 13 15 19 18 19 16 13 10 7 12 15 15
9 8 6 8 9 10 12 15 17 16 18 19 21 25 25 22 21 20 24 26 23 21 18 17 13 14 14 17 18 10 10 9 13 16 18 13 10 15 10 5 2 2 5 7
8 7 6 9 11 12 13 15 17 18 18 20 24 27 24 25 24 23 23 25 24 21 16 17 13 14 15 16 16 12 8 9 12 12 10 8 12 14 12 8 7 6 5 3
Wind_Direction
263 259 256 255 252 254 250 252 252 253 254 255 254 255 256 254 252 254 258 257 256 258 259 258 256 256 255 257 260 262 260 259 256 265 262 263 264 264 263 267 269 269 269 242
269 260 262 261 258 257 259 257 257 255 255 256 255 255 256 256 256 256 259 260 260 260 260 261 258 257 256 255 254 256 260 263 258 251 257 264 265 263 262 262 263 263 263 253
274 268 260 261 261 258 258 260 261 260 258 258 257 257 257 257 258 258 259 260 262 262 263 264 265 264 262 260 259 258 256 255 256 256 252 250 253 261 265 266 264 262 259 260
275 274 270 266 263 260 260 259 260 260 260 259 259 258 258 258 259 259 260 260 260 260 260 261 262 266 267 267 266 264 262 262 261 257 256 253 248 247 250 255 261 262 257 259
272 271 269 267 266 265 260 259 261 263 264 263 263 262 261 260 258 258 259 258 258 259 259 259 258 258 260 263 266 267 268 267 265 263 261 259 257 253 248 247 250 254 260 259
272 271 270 270 267 264 264 261 259 259 261 263 263 264 264 263 263 261 260 259 259 257 257 258 260 260 261 263 264 266 267 268 269 268 268 266 265 266 262 260 256 251 252 253
272 272 270 269 266 263 260 260 260 260 260 260 261 262 261 259 258 259 259 260 258 259 261 262 263 263 263 263 265 267 268 269 270 270 269 267 269 267 267 267 266 264 262 257
273 272 271 269 265 263 260 259 259 260 261 261 262 261 261 259 258 258 258 256 256 259 260 260 262 264 265 266 265 266 267 267 269 268 269 270 270 271 270 268 266 267 264 261
280 277 275 271 266 262 261 259 260 261 263 264 265 264 264 264 262 260 259 258 259 260 262 263 264 264 264 266 269 270 270 269 269 270 270 271 272 271 268 267 266 264 264 263
281 278 274 270 264 260 259 260 260 259 262 266 268 267 266 266 266 265 265 264 263 264 265 267 268 269 270 272 274 274 272 271 270 269 269 270 269 270 274 272 269 267 264 262
280 273 269 265 261 259 258 259 261 262 265 268 267 265 266 266 266 267 268 269 270 270 270 271 271 271 273 274 273 271 267 265 266 266 266 267 270 269 268 267 269 268 266 262
275 268 262 260 258 260 264 266 268 268 272 272 270 270 271 271 271 271 271 272 272 273 274 275 276 277 276 274 271 270 269 268 267 266 269 272 274 274 271 271 270 268 264 261
275 270 264 266 270 268 258 268 266 273 276 275 277 278 280 279 279 279 279 278 279 279 280 280 278 276 274 271 268 266 266 265 268 269 270 269 269 270 269 268 268 270 267 264
273 276 277 269 269 266 272 273 267 270 275 278 277 278 280 280 281 282 282 282 281 282 282 280 278 275 272 271 271 270 270 268 267 265 267 268 269 270 270 269 267 268 270 269
270 277 274 272 270 271 276 279 278 279 279 282 283 284 282 282 284 285 285 284 283 282 282 280 278 275 273 272 272 273 270 269 270 270 268 269 270 269 269 267 264 263 262 263
268 270 272 273 276 278 280 279 283 286 287 284 284 285 286 286 288 288 288 287 287 287 285 282 279 275 275 273 270 269 271 273 274 272 272 271 269 267 266 264 264 260 260 261
267 269 273 275 279 282 286 288 291 290 290 289 289 289 291 292 292 292 293 292 290 288 284 282 279 277 276 275 272 270 266 273 276 275 273 272 271 268 268 265 262 259 258 259
268 272 275 277 284 287 289 290 289 290 290 292 297 299 303 305 310 309 306 304 300 295 293 289 285 281 278 278 276 277 271 267 271 276 278 279 277 271 262 262 262 258 257 258
266 271 274 282 284 287 288 288 289 292 297 304 307 310 310 308 305 305 304 303 301 301 298 294 293 291 286 281 281 286 279 273 269 273 279 280 282 280 269 257 257 257 256 257
264 269 282 279 280 282 285 286 290 298 300 306 309 309 305 306 305 305 310 319 317 310 303 294 285 285 285 286 288 286 285 282 280 279 281 280 284 285 276 258 252 253 251 253
263 271 268 272 275 278 281 284 290 296 303 308 310 309 310 308 313 318 323 321 316 311 308 302 291 286 275 278 285 286 283 284 282 287 284 288 283 280 278 271 252 249 250 253
254 251 259 262 267 262 279 282 289 295 303 313 310 311 310 306 303 308 315 316 320 309 306 299 295 285 278 274 278 279 280 287 285 295 284 292 294 288 281 269 257 243 244 248
237 241 250 255 251 272 273 277 284 297 310 312 315 315 311 308 316 318 318 325 329 324 306 292 282 262 278 280 278 281 288 294 303 309 313 314 308 295 289 276 266 261 257 249
227 238 233 235 266 273 272 283 290 304 308 306 313 317 318 314 322 330 329 329 330 328 313 289 301 281 302 308 303 290 282 302 316 306 317 329 326 312 301 281 263 265 258 251
223 210 222 260 282 279 279 289 300 305 301 293 310 322 320 314 320 328 328 327 329 328 319 312 303 308 280 297 294 294 296 325 315 316 326 337 351 354 345 334 272 232 221 217
207 210 245 277 282 278 286 296 300 299 301 304 301 312 315 314 315 321 326 327 318 321 317 317 306 293 289 294 294 287 17 8 333 336 341 355 359 14 6 17 62 181 208 223
210 234 266 277 279 284 293 301 304 302 303 303 306 310 308 311 316 314 318 320 322 314 310 312 302 288 289 296 296 294 36 41 356 359 2 4 294 38 26 25 43 47 29 330
Height
5846 5846 5847 5848 5849 5850 5853 5854 5856 5857 5857 5860 5860 5861 5862 5864 5865 5867 5868 5871 5873 5874 5875 5877 5879 5880 5881 5883 5884 5885 5888 5890 5893 5893 5894 5894 5896 5898 5898 5897 5899 5899 5901 5908
5840 5840 5841 5842 5843 5844 5845 5847 5849 5851 5851 5852 5853 5854 5855 5856 5858 5860 5861 5862 5864 5866 5867 5869 5870 5872 5874 5876 5878 5878 5880 5880 5884 5888 5889 5888 5888 5890 5891 5892 5891 5892 5893 5902
5833 5834 5835 5835 5836 5837 5839 5841 5842 5843 5844 5845 5846 5847 5848 5849 5850 5851 5853 5854 5856 5857 5858 5859 5860 5862 5864 5867 5868 5869 5870 5872 5874 5877 5880 5881 5881 5882 5881 5881 5881 5886 5884 5891
5826 5826 5827 5828 5829 5830 5832 5833 5833 5835 5836 5837 5838 5838 5839 5840 5841 5842 5843 5844 5845 5846 5848 5849 5850 5851 5852 5854 5855 5857 5859 5860 5862 5864 5866 5867 5870 5872 5872 5871 5873 5870 5879 5878
5817 5818 5818 5819 5820 5821 5823 5824 5825 5826 5827 5828 5829 5829 5831 5830 5831 5833 5833 5834 5835 5836 5837 5838 5839 5841 5842 5842 5843 5844 5844 5845 5847 5849 5852 5852 5853 5856 5859 5861 5861 5860 5864 5867
5809 5809 5810 5810 5811 5812 5812 5814 5815 5816 5817 5818 5819 5820 5820 5820 5821 5822 5822 5823 5824 5826 5827 5827 5828 5830 5831 5831 5832 5832 5833 5833 5834 5837 5837 5837 5836 5842 5845 5846 5847 5851 5851 5856
5800 5800 5800 5801 5801 5801 5803 5804 5805 5806 5807 5808 5809 5810 5811 5811 5811 5812 5812 5812 5813 5815 5815 5816 5817 5817 5818 5819 5820 5820 5820 5820 5819 5820 5821 5820 5826 5827 5827 5830 5832 5835 5838 5841
5789 5789 5789 5789 5790 5790 5791 5793 5794 5795 5796 5798 5799 5799 5800 5800 5801 5801 5801 5802 5804 5803 5804 5804 5804 5805 5805 5806 5806 5807 5807 5806 5805 5805 5804 5808 5810 5811 5812 5813 5816 5816 5817 5822
5779 5778 5778 5778 5779 5779 5780 5782 5784 5785 5786 5787 5788 5789 5789 5790 5790 5791 5791 5791 5792 5793 5792 5792 5793 5793 5793 5793 5793 5794 5793 5792 5791 5789 5790 5791 5794 5794 5795 5797 5799 5797 5798 5801
5769 5768 5768 5769 5769 5770 5771 5773 5774 5776 5777 5778 5778 5779 5780 5780 5781 5781 5780 5781 5782 5781 5781 5780 5781 5780 5779 5779 5778 5778 5777 5776 5775 5774 5773 5776 5779 5780 5778 5780 5785 5781 5783 5784
5759 5759 5760 5761 5761 5762 5763 5765 5766 5767 5768 5769 5769 5770 5771 5771 5771 5771 5771 5771 5770 5770 5769 5768 5768 5766 5765 5764 5762 5762 5762 5761 5762 5761 5760 5762 5768 5768 5767 5765 5764 5763 5764 5765
5751 5752 5753 5754 5755 5756 5757 5758 5758 5759 5760 5761 5761 5761 5761 5761 5761 5761 5760 5759 5758 5757 5756 5755 5752 5752 5750 5749 5748 5746 5746 5744 5746 5745 5749 5748 5750 5749 5747 5747 5748 5746 5747 5748
5746 5747 5747 5748 5749 5750 5751 5751 5752 5752 5752 5753 5753 5752 5751 5750 5749 5749 5748 5746 5744 5743 5741 5740 5738 5737 5736 5735 5735 5734 5732 5731 5731 5732 5733 5732 5732 5734 5733 5732 5732 5731 5731 5733
5742 5742 5742 5742 5743 5744 5745 5744 5745 5745 5744 5743 5743 5743 5741 5739 5738 5737 5735 5733 5731 5729 5727 5725 5724 5722 5722 5722 5721 5721 5718 5716 5717 5718 5718 5718 5718 5717 5717 5719 5719 5718 5716 5718
5737 5737 5737 5737 5737 5737 5737 5737 5737 5736 5738 5735 5733 5732 5731 5728 5726 5724 5722 5720 5718 5716 5714 5712 5711 5709 5709 5709 5709 5708 5701 5703 5704 5706 5704 5703 5705 5704 5703 5703 5704 5703 5703 5704
5731 5731 5731 5731 5730 5729 5729 5729 5729 5728 5727 5726 5724 5723 5720 5718 5715 5713 5710 5708 5705 5703 5702 5701 5700 5697 5697 5698 5700 5697 5692 5692 5691 5692 5690 5689 5691 5690 5690 5689 5689 5689 5689 5689
5723 5723 5723 5723 5722 5722 5722 5722 5720 5719 5717 5716 5714 5712 5710 5708 5705 5702 5700 5698 5696 5695 5693 5693 5690 5688 5686 5687 5687 5684 5684 5683 5681 5679 5678 5678 5676 5676 5677 5675 5675 5675 5676 5677
5716 5716 5716 5715 5715 5715 5714 5713 5712 5711 5710 5708 5705 5703 5702 5699 5697 5696 5693 5691 5689 5687 5685 5683 5681 5679 5677 5677 5675 5674 5674 5673 5671 5669 5667 5665 5665 5663 5663 5662 5662 5663 5663 5664
5708 5708 5708 5708 5708 5707 5707 5706 5705 5704 5704 5700 5699 5697 5696 5694 5691 5689 5688 5685 5682 5681 5678 5675 5673 5670 5668 5667 5666 5665 5663 5662 5661 5660 5656 5654 5652 5652 5651 5649 5650 5651 5653 5652
5700 5702 5702 5701 5701 5701 5701 5699 5699 5698 5696 5695 5694 5692 5690 5689 5686 5683 5682 5679 5677 5673 5670 5666 5664 5663 5660 5659 5657 5656 5655 5653 5651 5649 5647 5643 5640 5639 5639 5638 5639 5640 5643 5644
5692 5693 5694 5695 5695 5695 5694 5695 5695 5693 5692 5691 5689 5687 5685 5682 5681 5678 5676 5672 5669 5665 5663 5659 5655 5654 5651 5651 5649 5647 5646 5644 5642 5639 5637 5634 5631 5629 5626 5626 5627 5629 5633 5636
5685 5687 5689 5690 5690 5690 5691 5690 5690 5689 5688 5686 5684 5682 5679 5677 5675 5673 5669 5666 5662 5657 5654 5650 5647 5646 5644 5643 5642 5640 5638 5637 5635 5631 5629 5626 5622 5619 5616 5616 5616 5618 5621 5624
5681 5683 5684 5685 5686 5687 5686 5686 5685 5684 5683 5681 5679 5677 5675 5671 5670 5667 5663 5658 5654 5649 5645 5642 5640 5639 5638 5637 5636 5635 5633 5631 5628 5625 5622 5618 5613 5609 5607 5607 5607 5608 5610 5612
5677 5679 5680 5682 5682 5682 5682 5682 5681 5680 5678 5676 5675 5672 5670 5667 5664 5659 5655 5652 5648 5643 5640 5638 5636 5634 5633 5632 5631 5630 5629 5626 5623 5620 5616 5612 5607 5602 5599 5596 5595 5596 5598 5600
5674 5676 5678 5678 5679 5679 5678 5678 5677 5675 5673 5671 5670 5667 5664 5661 5658 5654 5650 5647 5643 5639 5637 5634 5632 5629 5628 5628 5626 5625 5624 5621 5619 5616 5613 5608 5603 5598 5594 5589 5588 5590 5593 5597
5672 5674 5675 5675 5675 5675 5674 5673 5672 5670 5668 5666 5664 5661 5658 5656 5653 5649 5646 5643 5638 5635 5632 5630 5628 5626 5625 5624 5622 5621 5618 5617 5616 5614 5611 5606 5603 5599 5595 5593 5592 5593 5594 5596
5670 5671 5672 5672 5671 5671 5670 5669 5667 5666 5664 5661 5658 5655 5652 5649 5647 5644 5641 5638 5634 5631 5628 5627 5625 5623 5621 5620 5619 5618 5617 5616 5615 5613 5609 5606 5600 5598 5597 5597 5596 5595 5597 5597